Current weather by "City, St" or "zip code"  
 
Advertise Here

Current Conditions: Providence, Theodore Francis Green State Airport, RI

Partly Cloudy and Windy


79.0 F

Last Updated on Aug 4 2020, 5:51 pm EDT
Humidity: 72%
Wind Speed: S 28.8 G 52.9 mph
Barometer 29.77 in
Dewpoint: 69.1 F
Visibility: 10.00 mi
Precip: --
Heat Index: NA
Wind Chill: NA
Current conditions at:

Providence, Theodore Francis Green State Airport, RI (KPVD)

Lat: 41.72249 Lon: 71.43247

Local Radar Image active severe weather and emergency alerts image image weather storm and storm spotter reports image weather observation monitoring service image
Local
Radar
Active
Alerts
Storm Reports Obs
Monitoring

Sign-up For Email & Text Message Weather Alert Notification Services


Advertise Here

Observation History for Providence, Theodore Francis Green State Airport, RI


Time Wind
(mph)
Vis
(mi)
Weather Precip (in) Temperature (F) Relative
Humidity
Wind
Chill
(F)
Heat
Index
(F)
Pressure
Air Dwpt altimeter
(in)
sea level
(mb)
Rmks
5:51 pm EDT S 28.8 G 52.9 10.00 Partly Cloudy and Windy -- 79.0 69.1 72% NA NA 29.77 1008.0
4:51 pm EDT S 26.5 G 35.7 1.00 Light Rain and Windy 00.19 77.0 75.0 94% NA NA 29.77 1008.0
3:51 pm EDT SE 29.9 G 44.9 10.00 Overcast and Windy Trace 81.0 75.0 82% NA 87 29.78 1008.4
2:51 pm EDT SE 24.2 G 35.7 8.00 Overcast and Breezy Trace 81.0 75.0 82% NA 87 29.86 1011.2
1:51 pm EDT SE 20.7 G 31.1 10.00 Overcast and Breezy -- 82.0 73.9 77% NA 88 29.94 1013.8
12:51 pm EDT SE 20.7 G 27.6 10.00 Mostly Cloudy and Breezy -- 84.0 75.0 74% NA 92 29.98 1015.1
11:51 am EDT SE 17.3 G 26.5 10.00 Overcast -- 82.0 75.9 82% NA 89 30.00 1015.8
10:51 am EDT S 16.1 G 24.2 10.00 Overcast -- 83.0 75.9 79% NA 91 30.02 1016.4
9:51 am EDT S 9.2 10.00 Overcast -- 81.0 75.0 82% NA 87 30.04 1017.1
8:51 am EDT S 8.1 10.00 Overcast -- 78.0 72.0 82% NA NA 30.04 1017.1
7:51 am EDT SE 4.6 10.00 Overcast -- 77.0 72.0 85% NA NA 30.04 1017.2
6:51 am EDT N 0.0 10.00 Overcast -- 76.0 73.9 94% NA NA 30.06 1017.9
5:51 am EDT SE 4.6 10.00 Mostly Cloudy -- 75.0 73.0 94% NA NA 30.06 1017.9
4:51 am EDT S 3.5 10.00 A Few Clouds -- 75.0 73.0 94% NA NA 30.06 1017.9
3:51 am EDT S 9.2 10.00 Fair -- 76.0 73.0 91% NA NA 30.07 1018.1
2:51 am EDT S 4.6 10.00 Fair -- 77.0 73.9 90% NA NA 30.07 1018.2
1:51 am EDT E 4.6 10.00 Fair -- 77.0 73.0 88% NA NA 30.04 1017.2
12:51 am EDT W 5.8 10.00 Fair -- 79.0 72.0 79% NA NA 30.07 1018.1
11:51 pm EDT SW 8.1 10.00 Mostly Cloudy -- 79.0 71.1 77% NA NA 30.08 1018.5
10:51 pm EDT SW 9.2 10.00 Mostly Cloudy -- 80.0 69.1 69% NA 83 30.08 1018.5
9:51 pm EDT SW 8.1 10.00 Mostly Cloudy -- 79.0 70.0 74% NA NA 30.07 1018.1
8:51 pm EDT SW 9.2 10.00 Fair -- 80.0 66.9 64% NA 82 30.04 1017.3
7:51 pm EDT SW 9.2 10.00 Mostly Cloudy -- 84.0 64.0 51% NA 85 30.02 1016.5
6:51 pm EDT SW 12.7 10.00 Partly Cloudy -- 88.0 63.0 43% NA 89 30.00 1015.7

Regional Weather Observation


Providence, Theodore Francis Green State Airport, RI (KPVD)

Partly Cloudy and Windy
79.0 F

Taunton, Taunton Municipal Airport, MA (KTAN)

Mostly Cloudy
78.0 F

N. Kingston / Quonset, RI (KOQU)

A Few Clouds and Windy
79.0 F

Worcester, Worcester Regional Airport, MA (KORH)

Windy
73.0 F

Newport, Newport State Airport, RI (KUUU)

A Few Clouds and Breezy
78.0 F

Norwood, Norwood Memorial Airport, MA (KOWD)

Mostly Cloudy and Breezy
78.0 F